Flag for U.S.A. Weather past 2 weeks in Long Beach, California, U.S.A.

Now
75 °F

Passing clouds.


Feels Like: 77 °F
Forecast: 63 / 72 °F
Wind: 8 mph from Southwest

Location: Long Beach Airport

Current Time: Jul 5, 2015 at 4:19:41 PM

Latest Report: Jul 5, 2015 at 3:53 PM


Visibility: 10 mi

Pressure: 29.95 "Hg

Humidity: 60%

Dew point: 60 °F

Location of Long BeachLocation

Historic Weather in Long Beach — Graph

°F

Long Beach temperature yesterday

Maximum temperature yesterday: 79 °F (at 4:53 PM)
Minimum temperature yesterday: 65 °F (at 2:53 AM)
Average temperature yesterday: 69 °F

Past Weeks' High & Low Weather Summary

 TemperatureHumidityPressure
High88 °F (Jun 28, 12:53 PM)90% (Jun 21, 1:53 AM)30.03 "Hg (Jun 21, 1:53 AM)
Low64 °F (Jun 25, 5:53 AM)36% (Jun 30, 7:53 PM)29.79 "Hg (Jun 30, 6:53 PM)
Average73 °F67%29.91 "Hg
* Reported Jun 20 2:53 PM — Jul 5 2:53 PM, Long Beach, Weather by CustomWeather, © 2015

Note: Actual official high and low records may vary slightly from our data, if they occured in-between our weather recording intervals... More about our weather records

Advertising

Long Beach weather history for previous 24 hours

 ConditionsComfort  
Time TempWeatherWind HumidityBarometerVisibility
2:53 PM
Sun, Jul 5
75 °FSunny.10 mph60%29.96 "Hg10 mi
1:53 PM73 °FScattered clouds.6 mph64%29.97 "Hg10 mi
12:53 PM72 °FOvercast.7 mph66%29.99 "Hg10 mi
11:53 AM71 °FOvercast.6 mph68%30.00 "Hg10 mi
10:53 AM70 °FOvercast.6 mph71%30.00 "Hg10 mi
9:53 AM69 °FOvercast.3 mph73%29.98 "Hg10 mi
8:53 AM68 °FOvercast.5 mph73%29.98 "Hg10 mi
7:53 AM68 °FOvercast.3 mph73%29.97 "Hg10 mi
6:53 AM67 °FOvercast.3 mph76%29.96 "Hg10 mi
5:53 AM67 °FOvercast.5 mph76%29.95 "Hg10 mi
4:53 AM67 °FOvercast.3 mph76%29.93 "Hg10 mi
3:53 AM67 °FOvercast.5 mph76%29.93 "Hg10 mi
2:53 AM68 °FOvercast.5 mph73%29.93 "Hg9 mi
1:53 AM68 °FOvercast.No wind73%29.93 "Hg5 mi
12:53 AM68 °FOvercast.No wind73%29.93 "Hg5 mi
11:53 PM
Sat, Jul 4
67 °FOvercast.5 mph76%29.94 "Hg5 mi
10:53 PM66 °FHaze.3 mph78%29.94 "Hg5 mi
9:53 PM67 °FClear.7 mph76%29.92 "Hg7 mi
8:53 PM68 °FPassing clouds.9 mph73%29.90 "Hg10 mi
7:53 PM69 °FPassing clouds.13 mph70%29.88 "Hg10 mi
6:53 PM73 °FSunny.12 mph62%29.85 "Hg10 mi
5:53 PM75 °FSunny.13 mph60%29.84 "Hg10 mi
4:53 PM79 °FSunny.6 mph54%29.84 "Hg10 mi
Weather by CustomWeather, © 2015

See weather overviewHow to use our weather pages